Location: Reggio nell'Emilia
(44.7170°N, 10.6000°E)
Time: 11:37:07
(UTC+02:00)

ISS - Visible Passes

Search period start: 11 May 2021 00:00
Search period end: 21 May 2021 00:00
Orbit: 418 x 421 km, 51.6° (Epoch: 11 May)

Date Brightness Start Highest point End Pass type
(mag) Time Alt. Az. Time Alt. Az. Time Alt. Az.
11 May -1.6 02:04:21 27° NNE 02:04:21 27° NNE 02:06:38 10° NE visible
11 May -1.5 03:38:11 10° NW 03:41:05 26° N 03:43:59 10° ENE visible
11 May -3.2 05:14:58 10° NW 05:18:20 63° NNE 05:21:42 10° ESE visible
12 May -1.0 01:18:16 17° NE 01:18:16 17° NE 01:19:12 10° NE visible
12 May -1.4 02:51:12 13° NW 02:53:28 24° N 02:56:19 10° ENE visible
12 May -2.5 04:27:35 10° NW 04:30:50 45° NNE 04:34:06 10° E visible
13 May -1.4 02:05:02 22° NNW 02:05:51 24° N 02:08:42 10° NE visible
13 May -2.0 03:40:10 10° NW 03:43:18 34° NNE 03:46:27 10° E visible
13 May -3.6 05:16:56 10° WNW 05:20:15 54° SW 05:23:33 10° SE visible
14 May -1.5 01:18:38 25° N 01:18:38 25° N 01:21:10 10° NE visible
14 May -1.7 02:52:44 10° NW 02:55:44 29° NNE 02:58:44 10° ENE visible
14 May -3.8 04:29:27 10° WNW 04:32:50 86° SSW 04:36:13 10° ESE visible
14 May -1.8 21:16:00 10° SSE 21:17:17 12° SE 21:18:34 10° ESE visible
14 May -3.9 22:50:13 10° SW 22:53:35 79° SSE 22:55:37 22° ENE visible
15 May -1.8 00:27:38 10° WNW 00:30:39 29° NNW 00:33:41 10° NE visible
15 May -1.5 02:05:15 10° NW 02:08:08 26° N 02:11:02 10° ENE visible
15 May -3.3 03:42:01 10° NW 03:45:23 64° NNE 03:48:44 10° ESE visible
15 May -3.6 22:02:55 10° SW 22:06:11 49° SE 22:09:27 10° ENE visible
15 May -2.2 23:39:57 10° W 23:43:05 36° NNW 23:46:15 10° NE visible
16 May -1.4 01:17:41 10° NW 01:20:31 24° N 01:23:21 10° ENE visible
16 May -2.6 02:54:37 10° NW 02:57:53 45° NNE 03:01:10 10° E visible
16 May -3.1 04:31:34 10° WNW 04:34:39 33° SW 04:37:42 10° SSE visible
16 May -2.9 21:15:51 10° SSW 21:18:51 30° SE 21:21:51 10° ENE visible
16 May -2.7 22:52:18 10° W 22:55:34 47° NNW 22:58:50 10° NE visible
17 May -1.4 00:30:04 10° WNW 00:32:54 24° N 00:35:45 10° NE visible
17 May -2.1 02:07:12 10° NW 02:10:21 35° NNE 02:13:29 10° E visible
17 May -3.7 03:43:59 10° WNW 03:47:18 53° SW 03:50:35 10° SE visible
17 May -3.4 22:04:43 10° WSW 22:08:04 68° NNW 22:11:26 10° ENE visible
17 May -1.5 23:42:23 10° WNW 23:45:17 26° N 23:48:12 10° NE visible
18 May -1.7 01:19:46 10° NW 01:22:47 29° NNE 01:22:55 29° NNE visible
18 May -3.8 21:17:15 10° SW 21:20:36 80° SSE 21:23:59 10° ENE visible
18 May -1.7 22:54:41 10° WNW 22:57:41 29° NNW 23:00:43 10° NE visible
19 May -1.5 00:32:17 10° NW 00:35:10 26° N 00:36:32 20° NE visible
19 May -1.0 02:09:04 10° NW 02:09:26 13° NW 02:09:26 13° NW visible
19 May -2.1 22:06:58 10° W 22:10:07 36° NNW 22:13:16 10° NE visible
19 May -1.4 23:44:43 10° NW 23:47:33 24° N 23:50:21 10° ENE visible
20 May -1.6 01:21:39 10° NW 01:23:16 24° NW 01:23:16 24° NW visible
20 May -2.6 21:19:19 10° W 21:22:34 47° NNW 21:25:51 10° NE visible
20 May -1.4 22:57:05 10° WNW 22:59:55 24° N 23:02:46 10° NE visible
